User: anonymous   Login
Location: Bushey
(51.6333°N, 0.3667°W)
Time: 10:59:16
(UTC+00:00)
Language:

MOS 1 - Orbit

View from above orbital plane
View from above orbital plane
View from above satellite
View from above satellite

Ground track
Ground track

The orbit data is extracted from the following two-line orbital elements,

1 17527U 87018A   21138.14519462  .00000326  00000-0  24075-3 0  9995
2 17527  99.1079 187.6683 0007755 308.1168 112.9373 14.02587283750041
Epoch (UTC): 18 May 2021 03:29:04
Eccentricity: 0.0007755
inclination: 99.1079°
perigee height: 879 km
apogee height: 890 km
right ascension of ascending node: 187.6683°
argument of perigee: 308.1168°
revolutions per day: 14.02587283
mean anomaly at epoch: 112.9373°
orbit number at epoch: 75004

The dashed part of the orbit path shows where the satellite is in the earth's shadow,  

DLR